Deer Lake Regional Airport

Airport
ICAO code: 
CYDF
IATA Code: 
YDF
Summary
ICAO Region: 
NAM
Territory: 
Location: 
Deer Lake, Newfoundland,
Serving: 
Deer Lake
Elevation: 
72 ft
Coordinates: 
Aerial View: 
49° 12' 34.889" N, 57° 23' 33.899" W
Airport BS: 
Bird Strike
Airport CFIT: 
Altimeter Temperature Error Correction
Airport RE: 
Crosswind Landings
Airport WX: 
Low Level Turbulence
Metar
Observation
CYDF 190100Z 18007KT 12SM -RA BKN018 OVC025 03/03 A2910 RMK SC6SC2 SLP858
Station
Deer Lake, Nfld.
Date/Time
2022-01-19 01:00:00
Wind direction
180°
Wind speed
07 kts
Lowest cloud amount
broken clouds
Temperature
3°C
Dew point
3°C
Humidity
100%
Weather condition
light rain

Description

Regional airport serving Deer Lake, Newfoundland.

Climatology

Humid Continental climate (Köppen climate classification Dfb) - Variable weather patterns and a large seasonal temperature variance. Summers are often warm and humid with frequent thunderstorms and winters can be very cold with frequent snowfall and persistent snow cover.

The separate article climate Newfoundland contains more detail on the climate of Newfoundland and associated weather phenomena.

Runways

Designator Length Width Surface Rops
7/25 1829 46 ASP No/No
Airport map: 
Aerial View: 

SKYbrary Partners:

Safety knowledge contributed by: